Wind_Speed
24 25 25 25 26 27 28 28 29 29 30 30 30 30 30 31 31 32 32 32 32 32 32 32 33 34 34 35 36 36 36 36 37 38 38 39 39 40 39 39 39 40 41 42
23 24 24 25 26 27 28 28 28 27 28 29 29 28 29 29 30 30 30 31 31 31 32 33 33 34 35 35 36 37 37 37 38 39 39 40 40 40 40 40 40 41 41 41
23 23 24 24 25 26 27 27 26 26 26 27 27 27 27 28 28 29 29 30 31 31 32 32 33 33 33 33 34 36 36 37 38 39 40 41 40 40 40 40 40 40 41 40
23 24 24 24 24 25 25 25 26 26 25 25 26 26 25 26 27 27 28 29 30 30 31 32 32 33 33 33 34 35 35 37 38 39 40 40 40 40 40 40 40 41 41 41
22 24 24 24 24 24 24 24 24 24 24 25 25 26 25 24 25 26 27 28 29 29 30 31 32 32 32 33 34 34 35 36 37 37 38 38 39 39 39 41 41 42 42 41
21 22 23 23 23 23 23 23 23 23 24 24 24 25 24 23 24 25 26 27 28 29 29 30 31 31 31 32 32 32 33 34 34 35 35 35 37 38 38 40 41 41 41 40
21 22 22 22 22 22 22 23 23 24 23 23 23 24 23 23 23 24 25 25 26 27 28 29 30 30 31 31 30 31 31 31 31 32 32 33 36 37 38 38 39 40 40 39
22 21 21 21 21 21 21 22 23 24 24 23 23 23 22 22 23 24 25 25 25 25 26 27 27 28 29 29 29 30 30 29 29 29 30 32 34 36 37 37 37 38 39 39
22 21 21 20 20 21 22 22 23 24 24 24 23 23 22 22 22 23 24 24 24 24 25 26 26 27 27 25 26 27 28 27 27 28 29 30 32 34 35 35 36 37 37 38
21 21 20 19 19 20 21 22 23 23 24 24 24 23 22 22 23 23 23 23 22 23 24 25 25 26 25 24 24 25 26 26 26 26 27 27 30 31 32 33 35 36 37 37
20 20 19 19 19 19 21 22 23 24 24 25 25 24 23 23 23 24 24 23 23 23 24 25 26 26 25 24 23 24 24 24 25 25 26 28 29 30 31 31 32 33 33 35
20 20 20 20 19 19 20 21 22 23 23 24 25 24 23 23 23 23 23 23 23 24 25 26 26 26 24 23 23 23 22 23 24 25 26 26 27 27 28 29 31 31 31 32
21 21 20 20 21 20 21 21 22 23 23 23 24 23 22 23 23 23 23 23 24 25 25 25 25 25 24 23 23 22 21 22 23 24 24 24 24 25 26 27 29 30 31 32
20 20 20 21 21 21 21 21 21 22 23 22 21 21 21 22 23 23 23 23 24 24 24 24 24 23 22 22 22 22 23 22 23 23 23 24 24 25 26 26 28 30 31 31
22 21 21 21 22 22 22 22 21 22 22 22 21 20 20 21 22 22 23 23 24 24 24 24 23 22 22 22 23 24 24 24 24 24 23 24 25 25 26 27 28 29 30 30
21 22 22 22 23 23 23 23 22 21 21 21 21 20 21 22 22 23 23 23 24 24 23 23 23 22 23 23 23 23 24 24 25 25 24 24 24 25 26 27 28 29 29 30
21 22 23 22 22 22 23 21 21 21 20 21 21 21 21 21 22 22 23 23 23 24 24 24 23 23 23 24 23 24 24 25 25 25 25 25 25 26 27 28 28 29 30 31
22 23 24 22 22 23 21 21 21 21 21 21 21 21 21 21 22 22 23 23 23 24 24 25 24 23 24 24 24 24 25 25 25 26 26 26 26 26 27 28 29 30 31 31
21 22 22 22 22 22 21 21 21 21 21 21 21 21 21 22 22 22 23 22 23 24 24 24 24 24 24 24 24 24 24 25 25 26 26 25 25 26 26 27 28 29 30 31
21 21 22 23 24 23 21 21 21 22 22 21 21 21 21 22 22 22 23 23 22 22 23 23 23 24 24 24 24 24 24 24 24 24 24 25 26 27 27 28 28 28 28 28
20 21 22 23 23 22 21 21 21 21 21 21 21 21 21 22 22 22 23 23 23 22 22 22 23 24 24 24 23 23 23 23 23 23 23 24 25 26 27 27 27 27 26 26
20 21 21 22 22 21 20 20 20 21 21 21 22 22 22 22 22 23 23 24 24 23 22 22 23 23 23 23 22 21 21 22 22 22 22 23 24 25 25 25 25 25 25 24
21 21 22 22 21 20 20 21 21 22 22 22 23 23 22 22 22 22 23 23 23 23 23 23 23 22 21 21 21 20 20 21 21 21 22 23 24 24 24 24 24 24 24 23
21 21 22 22 20 20 20 21 22 23 23 23 23 23 22 23 22 22 22 23 23 23 23 23 23 22 21 21 21 20 20 21 21 21 22 22 22 23 23 24 23 23 22 22
21 22 22 22 21 21 20 21 23 24 24 24 23 23 23 22 22 22 23 23 22 22 22 22 22 22 22 21 21 21 20 19 19 20 20 20 21 21 21 22 22 21 21 20
21 22 22 21 21 21 20 21 23 23 24 24 24 23 23 23 23 23 23 23 22 21 22 22 23 22 22 22 21 20 19 19 18 19 19 20 19 19 19 19 20 20 19 19
Wind_Direction
271 270 270 272 272 273 272 272 272 271 270 269 267 267 267 266 266 267 269 270 272 274 273 272 270 269 268 267 267 268 268 264 259 256 256 255 256 256 257 256 258 259 260 262
272 273 272 272 273 274 274 273 272 271 272 270 268 268 267 265 265 266 268 270 272 274 274 273 272 271 270 270 269 269 268 264 261 258 258 255 256 257 259 258 259 260 260 263
274 276 275 274 275 275 274 271 270 272 273 272 272 270 269 266 266 267 269 272 274 275 275 275 273 271 270 269 269 268 266 264 262 262 261 257 256 256 258 258 259 261 261 262
276 275 276 276 277 276 275 271 271 273 273 273 274 274 270 269 269 269 270 273 276 277 278 277 276 274 272 269 269 269 267 267 264 263 262 259 258 255 256 257 259 260 260 261
282 278 275 276 277 277 274 273 272 273 275 274 275 275 273 273 273 272 271 274 277 279 280 280 279 278 275 272 270 269 269 269 267 264 261 259 257 255 255 256 257 259 259 260
284 282 278 278 279 277 274 272 272 276 278 275 276 276 275 276 277 275 274 277 279 280 280 281 281 280 278 275 272 272 270 269 267 264 261 261 258 256 256 256 256 258 259 260
284 283 282 281 279 277 272 273 276 279 278 276 276 276 278 280 280 279 279 281 281 281 281 282 283 282 281 278 274 270 269 268 267 264 263 262 260 259 258 258 258 258 259 259
285 283 281 280 278 276 272 274 278 281 282 279 276 279 280 282 283 285 283 282 282 282 283 285 285 284 283 281 275 269 267 268 269 267 267 265 262 260 259 259 259 259 259 260
285 284 283 282 278 276 275 277 279 280 283 281 276 279 278 282 285 286 286 285 284 283 284 286 286 285 285 283 277 271 268 269 271 271 272 268 264 263 262 261 261 261 262 262
284 284 282 281 279 277 277 278 279 278 282 283 278 280 282 283 284 285 286 287 288 288 287 288 287 285 285 284 278 275 270 270 270 272 274 271 267 265 264 262 262 262 263 262
283 283 281 280 279 280 280 279 279 278 280 281 281 282 285 285 286 287 287 287 287 289 290 289 286 286 284 283 279 276 273 272 271 273 274 272 268 266 264 263 263 264 264 263
283 281 279 279 279 281 281 279 279 279 280 281 282 284 285 287 287 287 287 287 287 288 288 288 285 283 280 279 277 275 273 271 272 273 273 272 269 267 265 265 265 266 266 265
285 281 278 277 276 279 281 281 279 279 280 281 283 286 287 287 287 286 286 287 288 288 287 286 284 282 279 277 276 276 275 274 274 274 274 273 270 269 269 269 268 268 268 267
284 280 278 278 277 279 281 281 280 280 282 282 285 287 288 289 289 288 289 288 290 292 291 287 286 284 282 280 279 279 279 276 275 275 274 272 270 270 273 272 270 269 269 269
284 282 280 277 275 278 280 279 279 281 282 282 284 286 290 292 292 293 293 291 290 292 292 290 287 284 283 282 280 280 279 277 275 275 274 273 273 272 274 275 274 273 272 271
284 282 280 278 276 277 276 276 277 279 280 281 283 285 289 292 293 293 294 293 291 292 293 292 289 285 284 284 281 279 278 278 276 274 274 273 273 274 275 277 277 276 274 272
283 283 282 281 279 277 276 278 277 278 281 283 285 286 287 291 294 295 295 294 292 291 292 291 289 287 286 285 283 280 279 278 276 275 275 274 275 276 276 277 278 277 276 274
284 284 284 283 282 281 284 281 279 278 280 283 284 285 288 289 294 297 297 295 293 292 293 292 290 289 286 286 285 282 280 278 276 275 275 275 275 277 277 278 277 278 276 274
282 283 284 285 284 284 285 284 282 281 283 286 286 286 289 291 291 294 297 298 296 295 294 293 292 292 289 287 285 283 281 278 278 276 276 275 276 277 278 279 279 278 276 275
280 281 283 286 285 285 288 286 284 283 284 286 287 288 289 292 292 295 296 296 297 299 297 294 293 294 292 290 287 283 281 279 280 279 278 278 277 277 278 279 280 280 277 275
282 282 284 287 288 287 287 287 286 286 289 287 289 291 292 293 294 295 295 295 296 297 297 296 297 296 294 293 291 287 283 282 281 280 280 281 281 280 280 280 279 280 279 275
283 285 287 289 288 288 288 287 288 289 290 289 290 291 291 292 293 294 295 296 297 298 298 298 299 296 294 294 291 287 285 285 284 284 284 284 285 285 284 284 283 281 281 278
282 284 287 289 290 289 288 287 287 287 287 288 289 289 288 291 293 294 295 296 297 297 298 298 299 297 294 292 292 291 289 288 286 286 287 286 286 286 286 285 285 284 280 278
283 284 286 288 289 288 287 286 286 286 286 289 290 289 288 291 291 291 293 294 295 295 296 297 299 299 297 295 294 292 291 291 288 287 287 287 287 287 287 287 287 284 279 278
285 286 287 289 289 288 286 286 286 286 286 287 290 291 290 290 289 290 292 294 294 295 296 296 298 299 299 297 295 295 293 293 292 289 287 288 290 291 288 286 286 285 282 279
285 286 288 290 289 288 288 287 286 286 286 287 289 290 290 289 288 289 292 294 295 295 296 297 299 299 298 296 295 293 291 289 290 292 288 288 291 293 291 287 285 285 284 282
Height
5721 5721 5720 5719 5719 5718 5717 5717 5716 5715 5714 5713 5712 5712 5711 5710 5710 5709 5709 5708 5707 5705 5704 5702 5701 5700 5699 5698 5697 5696 5696 5696 5698 5700 5702 5705 5707 5708 5710 5712 5714 5715 5716 5718
5715 5714 5714 5712 5711 5710 5709 5709 5708 5708 5706 5705 5704 5704 5703 5702 5701 5701 5700 5700 5698 5697 5695 5694 5693 5691 5690 5689 5689 5688 5688 5688 5689 5690 5692 5694 5696 5698 5700 5702 5704 5705 5706 5707
5708 5708 5706 5705 5704 5703 5702 5702 5701 5700 5699 5697 5697 5697 5695 5695 5694 5693 5693 5692 5691 5689 5688 5686 5685 5683 5682 5681 5680 5680 5680 5680 5680 5681 5682 5684 5685 5688 5690 5692 5693 5694 5695 5697
5701 5701 5700 5699 5697 5696 5696 5695 5694 5693 5692 5691 5690 5688 5689 5688 5686 5686 5685 5684 5683 5681 5680 5678 5676 5675 5674 5673 5672 5671 5671 5671 5671 5672 5672 5673 5675 5678 5680 5682 5683 5684 5685 5686
5695 5694 5693 5692 5691 5689 5689 5688 5687 5686 5685 5684 5683 5681 5682 5681 5679 5679 5678 5677 5675 5674 5672 5670 5669 5667 5666 5665 5664 5663 5662 5662 5662 5662 5662 5663 5664 5666 5668 5670 5672 5673 5674 5675
5689 5687 5686 5685 5684 5683 5682 5682 5681 5679 5678 5677 5677 5674 5674 5673 5673 5671 5670 5669 5668 5666 5664 5662 5661 5659 5658 5657 5655 5654 5654 5653 5653 5652 5652 5653 5654 5656 5658 5659 5661 5662 5664 5664
5683 5681 5679 5679 5678 5677 5676 5675 5674 5672 5671 5671 5670 5667 5669 5667 5666 5664 5663 5662 5660 5658 5657 5655 5654 5652 5650 5649 5647 5646 5645 5645 5644 5643 5643 5644 5645 5646 5648 5649 5650 5652 5653 5654
5676 5676 5674 5672 5672 5670 5669 5669 5668 5666 5665 5664 5663 5661 5663 5661 5659 5657 5656 5654 5653 5651 5650 5648 5646 5644 5642 5640 5639 5638 5637 5636 5636 5636 5636 5635 5636 5637 5638 5638 5639 5641 5642 5644
5670 5670 5668 5667 5665 5665 5664 5663 5662 5661 5658 5657 5657 5656 5657 5655 5653 5651 5649 5647 5646 5644 5643 5641 5639 5637 5635 5633 5631 5630 5629 5628 5628 5628 5628 5627 5627 5628 5628 5629 5629 5630 5632 5633
5664 5664 5663 5661 5660 5659 5659 5657 5656 5654 5652 5650 5650 5650 5650 5649 5647 5645 5643 5641 5640 5638 5635 5634 5632 5630 5627 5625 5624 5622 5621 5621 5620 5620 5620 5619 5619 5619 5619 5620 5620 5621 5621 5622
5658 5658 5657 5656 5655 5654 5653 5652 5649 5648 5647 5645 5643 5647 5645 5643 5641 5639 5637 5635 5633 5631 5629 5627 5624 5622 5620 5618 5616 5615 5614 5613 5613 5613 5612 5612 5611 5611 5611 5611 5611 5611 5612 5612
5652 5652 5651 5650 5650 5648 5646 5645 5644 5643 5641 5639 5638 5642 5639 5637 5634 5632 5630 5628 5626 5624 5622 5620 5618 5615 5613 5611 5610 5609 5608 5607 5607 5606 5605 5604 5603 5603 5603 5603 5603 5603 5603 5603
5647 5646 5645 5645 5645 5643 5641 5639 5638 5637 5635 5633 5632 5636 5632 5630 5628 5626 5624 5622 5620 5618 5615 5613 5611 5608 5607 5605 5603 5602 5601 5601 5600 5598 5598 5597 5596 5595 5595 5595 5594 5594 5594 5594
5641 5640 5640 5639 5637 5636 5635 5634 5632 5631 5629 5628 5627 5627 5627 5624 5621 5619 5617 5615 5613 5611 5609 5606 5604 5602 5600 5598 5597 5596 5595 5594 5593 5591 5591 5590 5589 5588 5588 5587 5586 5586 5585 5585
5635 5635 5634 5633 5632 5630 5629 5628 5627 5625 5624 5623 5622 5621 5621 5618 5615 5613 5611 5609 5607 5604 5602 5599 5597 5595 5594 5592 5590 5589 5588 5587 5585 5584 5583 5582 5582 5581 5580 5579 5578 5577 5576 5576
5629 5629 5628 5627 5625 5624 5622 5622 5621 5619 5618 5617 5616 5616 5614 5611 5609 5607 5605 5603 5601 5598 5596 5593 5590 5589 5587 5585 5584 5582 5581 5579 5578 5577 5576 5575 5574 5573 5572 5571 5570 5569 5568 5567
5624 5623 5622 5621 5619 5617 5617 5617 5615 5614 5613 5612 5610 5610 5607 5606 5603 5601 5599 5596 5594 5592 5590 5587 5584 5582 5580 5578 5576 5575 5573 5572 5570 5569 5568 5567 5566 5565 5564 5563 5562 5561 5559 5558
5618 5616 5615 5614 5614 5612 5614 5611 5609 5608 5607 5606 5604 5603 5602 5600 5598 5595 5593 5590 5588 5585 5583 5580 5578 5575 5573 5571 5569 5567 5565 5564 5563 5562 5561 5559 5558 5557 5556 5555 5554 5552 5551 5549
5612 5610 5609 5608 5606 5606 5607 5605 5603 5601 5601 5600 5598 5597 5595 5593 5592 5590 5587 5584 5581 5579 5576 5573 5571 5568 5566 5564 5561 5559 5558 5557 5555 5554 5553 5552 5551 5550 5548 5546 5545 5543 5542 5541
5606 5605 5604 5602 5600 5600 5602 5600 5597 5596 5595 5594 5592 5590 5589 5587 5586 5585 5581 5578 5575 5572 5569 5567 5564 5561 5559 5556 5554 5552 5551 5549 5548 5547 5545 5544 5543 5541 5540 5538 5536 5535 5533 5532
5600 5599 5598 5596 5594 5594 5596 5593 5591 5591 5591 5588 5585 5584 5582 5581 5579 5577 5574 5572 5569 5566 5563 5561 5558 5555 5552 5550 5547 5546 5544 5542 5541 5539 5538 5536 5535 5533 5531 5530 5528 5527 5525 5525
5595 5593 5592 5590 5589 5591 5589 5587 5586 5585 5582 5581 5579 5577 5576 5574 5572 5570 5568 5565 5563 5560 5557 5555 5552 5549 5546 5544 5541 5539 5537 5536 5534 5532 5531 5529 5527 5525 5523 5522 5520 5519 5518 5517
5589 5588 5586 5586 5587 5584 5582 5580 5579 5577 5576 5574 5572 5571 5569 5568 5566 5564 5562 5559 5556 5554 5551 5549 5546 5543 5540 5538 5535 5533 5531 5529 5528 5526 5523 5522 5520 5518 5516 5515 5513 5512 5511 5510
5583 5581 5580 5579 5579 5578 5576 5574 5572 5571 5569 5567 5566 5564 5563 5561 5559 5558 5555 5553 5551 5548 5545 5543 5540 5537 5535 5532 5530 5528 5525 5523 5521 5519 5517 5515 5513 5511 5509 5508 5506 5505 5504 5503
5577 5575 5573 5572 5572 5571 5570 5567 5566 5564 5562 5561 5559 5558 5556 5554 5553 5551 5549 5547 5545 5542 5539 5537 5534 5531 5529 5526 5524 5522 5519 5517 5515 5513 5511 5509 5507 5505 5503 5502 5500 5499 5498 5497
5571 5569 5567 5567 5566 5564 5563 5561 5559 5557 5556 5554 5553 5551 5549 5548 5546 5544 5542 5540 5538 5536 5533 5531 5529 5526 5523 5520 5518 5516 5514 5511 5509 5507 5505 5503 5501 5499 5497 5496 5494 5493 5492 5491